TimeHST,TemperatureF,Dew PointF,Humidity,Sea Level PressureIn,VisibilityMPH,Wind Direction,Wind SpeedMPH,Gust SpeedMPH,PrecipitationIn,Events,Conditions,WindDirDegrees,DateUTC
12:56 AM,61.9,59.9,93,30.07,10.0,NNE,4.6,-,N/A,,Clear,30,2012-12-01 10:56:00
1:56 AM,61.9,59.9,93,30.04,10.0,East,4.6,-,N/A,,Clear,80,2012-12-01 11:56:00
2:56 AM,61.9,59.9,93,30.03,10.0,East,4.6,-,N/A,,Clear,100,2012-12-01 12:56:00
3:56 AM,61.0,55.9,83,30.02,10.0,East,6.9,-,N/A,,Clear,100,2012-12-01 13:56:00
4:56 AM,59.9,54.9,83,30.03,10.0,East,6.9,-,N/A,,Clear,80,2012-12-01 14:56:00
5:56 AM,59.0,54.0,83,30.04,10.0,ENE,6.9,-,N/A,,Clear,70,2012-12-01 15:56:00
6:56 AM,63.0,54.9,75,30.06,10.0,East,6.9,-,N/A,,Clear,100,2012-12-01 16:56:00
7:56 AM,64.4,57.2,77,30.10,10.0,East,6.9,-,N/A,,Partly Cloudy,80,2012-12-01 17:56:00
8:39 AM,69.8,66.2,88,30.11,10.0,SE,11.5,-,N/A,,Mostly Cloudy,130,2012-12-01 18:39:00
8:56 AM,70.9,65.8,84,30.06,10.0,ESE,13.8,-,N/A,,Mostly Cloudy,120,2012-12-01 18:56:00
9:05 AM,71.6,64.4,78,30.11,10.0,ESE,13.8,-,N/A,,Scattered Clouds,120,2012-12-01 19:05:00
9:56 AM,75.9,63.0,64,30.06,10.0,SE,13.8,-,N/A,,Clear,130,2012-12-01 19:56:00
10:56 AM,75.2,64.4,69,30.10,10.0,SE,12.7,-,N/A,,Partly Cloudy,130,2012-12-01 20:56:00
11:56 AM,77.9,63.0,60,30.04,10.0,SSE,10.4,-,N/A,,Partly Cloudy,150,2012-12-01 21:56:00
12:32 PM,80.6,64.4,58,30.07,10.0,SSE,11.5,-,N/A,,Mostly Cloudy,150,2012-12-01 22:32:00
12:41 PM,80.6,64.4,58,30.07,10.0,SSE,11.5,-,N/A,,Mostly Cloudy,160,2012-12-01 22:41:00
12:48 PM,80.6,64.4,58,30.06,10.0,SSE,8.1,-,N/A,,Mostly Cloudy,150,2012-12-01 22:48:00
12:56 PM,77.9,63.9,62,30.01,10.0,SSE,10.4,-,N/A,,Mostly Cloudy,150,2012-12-01 22:56:00
1:56 PM,78.8,66.2,65,30.05,10.0,SSE,10.4,-,N/A,,Mostly Cloudy,150,2012-12-01 23:56:00
2:56 PM,75.9,64.9,69,29.99,10.0,SE,10.4,-,N/A,,Mostly Cloudy,140,2012-12-02 00:56:00
3:04 PM,75.2,64.4,69,30.03,10.0,SE,11.5,-,N/A,,Scattered Clouds,130,2012-12-02 01:04:00
3:56 PM,75.9,63.9,66,29.99,10.0,SE,10.4,-,N/A,,Clear,140,2012-12-02 01:56:00
4:56 PM,72.9,63.9,73,30.01,10.0,SE,8.1,-,N/A,,Clear,140,2012-12-02 02:56:00
5:56 PM,68.9,63.0,81,30.05,10.0,SE,4.6,-,N/A,,Partly Cloudy,140,2012-12-02 03:56:00
6:56 PM,66.9,63.0,87,30.06,10.0,East,4.6,-,N/A,,Clear,80,2012-12-02 04:56:00
9:56 PM,65.8,63.9,93,30.08,10.0,East,3.5,-,N/A,,Clear,90,2012-12-02 07:56:00
10:56 PM,65.8,63.0,90,30.06,10.0,East,5.8,-,N/A,,Clear,80,2012-12-02 08:56:00
11:56 PM,64.9,61.9,90,30.04,10.0,East,5.8,-,N/A,,Clear,80,2012-12-02 09:56:00